Flag for U.S.A. Weather past 2 weeks in Antioch, California, U.S.A.

Now
69 °F

Clear.


Feels Like: 69 °F
Forecast: 61 / 84 °F
Wind: 9 mph from South

Location: Buchanan Field

Current Time: Sep 19, 2014 at 11:23:45 PM

Latest Report: Sep 19, 2014 at 10:53 PM


Visibility: 10 mi

Pressure: 29.82 "Hg

Humidity: 68%

Dew point: 58 °F

Location of AntiochLocation

Historic Weather in Antioch — Graph

°F

Antioch temperature yesterday

Maximum temperature yesterday: 80 °F (at 3:53 PM)
Minimum temperature yesterday: 66 °F (at 10:53 PM)
Average temperature yesterday: 71 °F

Past Weeks' High & Low Weather Summary

 TemperatureHumidityPressure
High97 °F (Sep 11, 4:53 PM)93% (Sep 10, 1:53 AM)29.96 "Hg (Sep 10, 1:53 AM)
Low54 °F (Sep 10, 6:53 AM)11% (Sep 10, 4:53 PM)29.69 "Hg (Sep 17, 4:53 PM)
Average70 °F61%29.81 "Hg
* Reported Sep 4 9:53 PM — Sep 19 9:53 PM, Antioch, Weather by CustomWeather, © 2014

Note: Actual official high and low records may vary slightly from our data, if they occured in-between our weather recording intervals... More about our weather records

Advertising

Antioch weather history for previous 24 hours

 ConditionsComfort  
Time TempWeatherWind HumidityBarometerVisibility
9:53 PM
Sep 19
70 °FClear.7 mph64%29.82 "Hg10 mi
8:53 PM71 °FPassing clouds.5 mph61%29.82 "Hg10 mi
7:53 PM73 °FPassing clouds.8 mph57%29.80 "Hg10 mi
6:53 PM76 °FSunny.8 mph50%29.79 "Hg10 mi
5:53 PM79 °FSunny.9 mph44%29.78 "Hg10 mi
4:53 PM81 °FSunny.13 mph44%29.79 "Hg10 mi
3:53 PM83 °FSunny.14 mph43%29.79 "Hg10 mi
2:53 PM83 °FSunny.9 mph38%29.80 "Hg10 mi
1:53 PM84 °FSunny.12 mph38%29.81 "Hg10 mi
12:53 PM80 °FSunny.14 mph49%29.82 "Hg10 mi
11:53 AM77 °FSunny.3 mph56%29.84 "Hg10 mi
10:53 AM72 °FPassing clouds.7 mph66%29.86 "Hg10 mi
9:53 AM68 °FSunny.5 mph76%29.87 "Hg10 mi
8:53 AM65 °FSunny.5 mph81%29.87 "Hg10 mi
7:53 AM62 °FSunny.6 mph86%29.86 "Hg10 mi
6:53 AM60 °FClear.7 mph90%29.85 "Hg10 mi
5:53 AM60 °FClear.No wind86%29.85 "Hg10 mi
4:53 AM61 °FClear.6 mph87%29.84 "Hg10 mi
3:53 AM61 °FClear.8 mph87%29.85 "Hg10 mi
2:53 AM62 °FClear.6 mph86%29.85 "Hg10 mi
1:53 AM63 °FClear.6 mph87%29.85 "Hg10 mi
12:53 AM63 °FClear.6 mph84%29.84 "Hg10 mi
11:53 PM
Sep 18
66 °FClear.9 mph81%29.84 "Hg10 mi
Weather by CustomWeather, © 2014

See weather overviewHow to use our weather pages